Location: Benque
(43.2594°N, 0.9178°E)
Time: 03:28:44
(UTC+00:00)

USA 238 DEB - Pass Details

Date: 24 January 2020
Orbit: 1021 x 1191 km, 63.4° (Epoch: 10 February)

Event Time Altitude Azimuth Distance (km) Brightness Sun altitude
Rises 19:20:58 0° 196° (SSW) 3,752 6.8 -26.1°
Reaches altitude 10° 19:23:37 10° 192° (SSW) 2,812 6.0 -26.6°
Enters shadow 19:28:43 46° 152° (SSE) 1,373 4.0 -27.5°
